Wind_Speed
40 39 40 40 40 39 39 39 39 39 39 39 39 38 38 37 37 37 36 35 35 34 33 33 33 33 33 33 32 31 31 31 31 31 31 31 30 31 30 30 30 31 31
41 41 42 42 42 42 42 41 41 40 40 40 40 40 40 39 39 39 39 38 38 37 37 36 35 35 35 34 34 33 33 33 33 33 33 33 32 32 33 33 33 32 32
41 41 41 42 43 42 42 42 42 42 42 42 42 42 42 42 41 41 40 40 40 39 39 38 38 38 37 37 36 35 35 35 35 35 35 35 35 35 35 34 34 34 34
42 43 43 43 44 44 43 43 43 43 43 43 44 44 44 43 43 43 42 42 42 41 40 39 39 40 39 39 38 37 37 37 38 37 37 37 37 36 36 36 35 35 35
43 43 43 44 45 45 45 45 45 45 46 46 46 46 46 45 45 45 44 43 43 43 42 41 41 41 40 40 40 40 39 38 38 38 38 38 38 37 37 37 37 37 36
44 45 45 45 46 46 46 47 47 47 47 47 47 47 47 47 46 46 46 45 44 44 43 43 42 42 42 41 40 40 40 40 39 39 38 39 38 38 37 37 38 38 37
45 46 47 46 46 47 47 48 48 48 47 47 47 46 46 46 46 46 46 46 45 44 44 44 43 43 43 43 42 41 41 41 41 40 38 39 38 38 38 38 38 38 38
44 45 45 47 47 46 47 47 48 47 47 47 46 46 45 45 45 45 45 45 45 44 45 45 45 45 44 44 43 42 43 43 42 41 40 40 39 39 39 39 40 40 39
44 44 44 45 46 46 46 46 46 46 45 45 46 45 46 46 45 45 45 45 45 45 46 45 45 45 45 45 44 43 43 43 43 42 43 43 42 41 40 40 41 40 40
43 44 44 44 45 46 45 44 44 45 45 45 45 45 45 45 46 45 44 45 45 46 46 46 46 46 46 45 45 45 44 45 45 44 44 44 44 44 43 43 43 42 42
43 42 42 43 44 44 43 43 44 44 46 47 46 45 45 45 45 45 43 44 45 46 46 46 46 46 45 45 46 46 46 46 45 45 45 45 45 44 44 44 44 43 43
43 43 42 42 42 42 42 43 44 44 45 46 47 47 46 45 45 45 45 45 46 47 47 48 48 48 47 47 47 47 47 47 47 46 46 46 45 45 45 45 45 45 45
43 44 43 42 42 42 42 42 43 43 43 44 45 46 47 46 46 46 46 46 46 46 47 48 49 49 49 48 47 47 47 47 47 47 47 46 47 46 46 46 46 46 46
42 43 43 43 42 42 41 41 41 42 42 43 43 44 44 44 45 46 46 46 46 45 46 46 47 48 48 47 47 48 48 48 47 47 47 47 47 47 47 47 47 47 46
41 42 42 42 42 41 40 39 39 40 40 41 42 43 43 43 44 44 45 45 45 45 44 45 46 46 46 47 48 48 48 48 48 48 48 48 49 48 48 48 48 48 47
40 40 41 41 41 40 39 39 39 39 40 41 41 41 42 43 43 43 43 44 44 44 44 43 44 45 46 46 47 47 48 48 49 48 48 47 47 47 48 47 47 48 47
39 39 39 39 39 39 39 40 40 40 40 40 40 40 40 41 42 42 42 42 42 42 42 42 43 44 46 46 46 46 47 47 48 47 47 47 47 47 48 48 48 48 48
37 38 38 38 38 39 39 39 40 41 40 40 40 40 40 40 41 41 41 42 42 42 42 42 43 44 45 46 46 45 46 47 47 46 47 47 47 47 48 47 48 48 48
37 37 38 38 38 38 39 39 39 40 40 39 40 40 40 40 41 40 41 42 42 42 43 42 42 43 44 45 46 45 45 45 46 46 47 47 46 46 46 46 47 47 48
37 37 37 36 37 37 37 38 38 38 39 39 39 40 40 41 41 41 41 42 42 42 42 43 42 43 43 44 45 45 45 45 45 45 45 46 46 46 46 47 48 48 48
35 36 35 35 35 35 36 37 38 38 38 39 39 40 41 41 41 41 42 42 42 42 42 42 42 41 42 43 43 43 43 43 43 44 44 44 44 45 46 46 47 47 47
35 35 35 35 35 35 36 37 37 37 38 38 39 39 40 41 41 41 41 42 42 41 41 40 40 40 41 41 41 41 41 42 42 42 43 44 45 45 45 45 46 46 46
35 34 34 34 35 35 35 36 36 37 37 37 37 37 37 38 38 39 39 39 40 40 40 40 40 39 39 40 40 41 41 41 41 41 42 43 44 44 44 44 45 44 44
34 33 34 33 33 34 35 35 35 35 36 36 36 36 35 35 35 36 36 37 37 38 37 38 38 38 38 39 39 40 41 41 41 41 41 41 41 41 42 42 42 42 42
34 34 33 33 33 32 32 32 33 33 33 33 33 33 33 33 32 32 33 34 34 34 34 34 35 36 36 36 37 39 39 40 39 39 39 39 38 38 38 39 40 40 40
33 33 32 31 30 30 30 30 29 30 30 30 30 30 31 30 31 31 31 31 31 32 32 33 33 34 34 34 35 36 37 37 37 37 38 38 37 36 35 35 37 37 37
Wind_Direction
261 261 260 260 260 260 260 261 261 262 263 264 264 264 264 264 264 264 264 265 266 266 267 266 267 266 267 267 267 268 268 270 270 271 271 270 270 270 270 271 273 275 277
261 261 260 260 260 260 260 261 262 263 263 263 263 263 263 264 264 263 264 264 265 265 265 265 265 265 266 266 266 267 267 268 269 270 271 272 272 271 270 271 272 274 276
262 261 261 261 261 260 260 260 261 262 262 263 263 263 263 264 264 264 264 264 264 264 264 264 265 265 266 265 266 267 267 269 270 271 271 271 272 273 271 270 272 273 275
263 263 262 262 262 261 261 261 261 262 263 262 263 263 263 263 263 263 263 263 263 263 263 262 263 263 263 264 265 266 266 268 269 269 270 271 271 271 270 269 271 272 273
263 263 263 263 263 263 263 263 263 263 263 263 263 263 263 262 262 262 262 263 263 263 262 261 261 261 261 263 264 265 266 267 268 269 269 269 269 270 270 269 270 271 273
264 263 264 265 265 264 264 264 263 263 263 264 263 263 263 262 261 261 261 262 261 260 260 260 260 260 260 261 263 264 265 265 266 267 268 268 268 268 269 270 271 271 272
265 265 266 266 266 266 266 265 264 263 263 263 263 262 262 262 261 260 260 261 260 259 259 259 258 259 260 261 262 263 264 264 264 265 266 266 267 267 268 269 271 271 272
266 266 266 266 266 266 266 265 264 262 261 261 261 261 261 260 259 259 259 259 259 259 258 258 259 259 260 261 262 263 264 264 264 264 265 264 267 267 268 270 271 272 272
267 267 266 265 265 265 264 263 263 261 260 260 260 260 260 259 259 259 259 258 257 257 257 258 258 259 260 261 262 263 263 264 264 264 265 265 266 267 269 269 270 271 272
268 268 267 265 265 264 263 263 262 260 260 260 260 259 259 260 259 257 257 257 257 257 257 257 258 259 260 260 261 262 262 264 264 264 265 265 265 266 267 269 270 271 271
268 268 268 268 266 265 264 263 261 260 260 260 260 259 259 259 259 258 257 256 257 258 258 258 258 258 259 260 261 262 263 264 264 264 264 264 265 267 267 269 270 271 272
270 268 269 269 268 266 265 264 263 262 262 261 262 261 260 260 258 258 257 256 256 258 259 258 258 258 259 261 263 263 264 265 264 264 265 265 265 266 266 268 269 271 272
270 270 269 269 268 267 266 265 264 263 262 262 262 262 263 261 260 259 259 259 258 259 259 259 258 259 260 261 263 263 263 264 264 265 265 265 265 265 265 267 269 270 271
270 270 270 270 269 267 265 265 265 263 263 263 262 263 263 261 260 260 260 260 259 260 260 260 258 259 259 260 262 262 262 264 265 264 265 265 265 265 267 268 269 270 271
271 272 271 270 269 267 265 264 265 265 264 263 263 263 262 262 261 261 261 261 260 260 260 260 261 260 260 260 261 261 261 262 263 264 264 265 265 266 266 268 269 270 270
273 272 272 271 269 267 265 264 264 265 265 264 264 263 263 262 261 261 261 262 262 261 261 260 261 261 260 260 260 261 261 262 263 264 264 265 265 265 266 268 268 269 270
275 274 273 272 269 267 266 266 266 266 265 264 263 263 263 262 261 261 261 262 262 262 261 261 262 262 262 261 262 262 262 263 263 264 264 265 264 265 267 267 268 269 271
276 276 275 274 271 268 267 267 266 265 264 263 263 263 263 263 262 261 261 262 262 262 262 263 263 263 262 261 262 263 263 263 263 265 265 264 264 265 266 267 269 270 271
278 277 277 274 271 268 266 265 264 263 262 262 263 263 264 263 262 261 261 262 263 263 263 263 264 264 263 261 262 264 265 265 265 265 266 265 265 265 266 267 269 269 271
279 278 277 274 271 269 267 266 264 262 261 262 262 263 264 263 262 261 262 263 263 263 263 263 264 265 263 262 263 263 265 265 265 267 267 267 266 266 267 267 269 270 271
280 279 277 274 271 268 267 266 265 264 262 262 262 263 264 263 263 262 262 262 263 264 264 264 264 264 264 263 263 264 265 265 266 267 268 268 268 267 267 268 269 270 272
281 280 277 275 272 269 268 267 265 264 263 262 263 263 263 262 263 263 263 262 263 263 264 264 263 264 264 262 262 264 266 266 267 267 268 269 269 269 270 269 270 271 273
279 280 278 275 272 269 268 267 266 264 263 264 264 264 264 264 263 263 263 263 263 263 263 263 263 264 264 262 262 264 266 267 268 269 269 269 270 271 271 272 272 273 275
279 279 278 276 273 269 267 267 266 265 264 264 264 264 264 264 263 263 263 263 263 262 263 263 263 264 264 264 263 265 267 269 270 270 270 270 270 271 273 274 275 275 275
278 278 277 275 273 270 268 267 266 265 264 263 263 263 263 263 263 262 263 262 261 261 261 262 262 264 265 266 266 266 267 269 271 270 270 270 272 272 272 274 274 274 274
277 277 276 275 273 270 268 267 266 264 263 262 262 262 263 263 262 262 263 263 262 262 262 262 263 264 265 268 269 268 268 269 270 269 269 271 272 272 273 274 275 276 276
Height
5761 5762 5763 5765 5766 5767 5769 5770 5771 5773 5774 5775 5776 5777 5778 5779 5781 5782 5783 5784 5785 5786 5787 5788 5789 5789 5790 5790 5791 5792 5793 5793 5794 5795 5795 5796 5796 5797 5797 5797 5797 5797 5797
5751 5752 5753 5754 5756 5757 5759 5760 5762 5763 5764 5765 5767 5768 5769 5770 5771 5772 5774 5775 5776 5778 5779 5780 5781 5781 5782 5783 5784 5784 5785 5786 5787 5787 5788 5788 5789 5789 5790 5790 5790 5790 5790
5740 5741 5742 5744 5745 5747 5748 5750 5751 5752 5754 5755 5756 5758 5759 5760 5761 5763 5764 5765 5767 5768 5769 5771 5772 5772 5773 5774 5775 5776 5777 5778 5779 5779 5780 5780 5781 5782 5782 5782 5783 5783 5783
5729 5730 5731 5733 5734 5736 5737 5739 5740 5741 5743 5744 5745 5747 5748 5749 5751 5752 5753 5755 5756 5758 5759 5761 5762 5763 5764 5765 5766 5767 5768 5769 5770 5770 5771 5772 5773 5773 5774 5774 5775 5775 5775
5718 5719 5720 5721 5723 5724 5725 5727 5728 5729 5731 5732 5733 5735 5736 5738 5739 5741 5742 5744 5745 5747 5749 5750 5752 5753 5754 5756 5757 5758 5759 5760 5761 5761 5762 5763 5764 5765 5765 5766 5766 5767 5767
5707 5708 5708 5709 5710 5712 5713 5714 5716 5717 5718 5719 5721 5722 5724 5725 5726 5728 5730 5732 5734 5735 5737 5739 5741 5742 5744 5746 5747 5748 5749 5750 5751 5752 5752 5753 5755 5755 5756 5757 5758 5758 5758
5695 5696 5697 5697 5698 5699 5700 5701 5702 5704 5705 5706 5708 5710 5711 5712 5713 5715 5717 5719 5722 5724 5726 5728 5730 5731 5733 5735 5737 5738 5739 5740 5741 5742 5743 5744 5745 5746 5747 5748 5749 5749 5749
5683 5684 5684 5685 5686 5687 5687 5688 5689 5690 5692 5693 5694 5696 5699 5701 5701 5703 5705 5707 5710 5712 5714 5716 5718 5720 5722 5724 5726 5728 5729 5730 5731 5732 5733 5734 5736 5736 5737 5739 5739 5740 5740
5672 5672 5672 5673 5673 5674 5675 5675 5676 5677 5679 5680 5681 5684 5686 5688 5690 5692 5693 5695 5698 5700 5702 5704 5706 5709 5711 5713 5715 5717 5718 5719 5720 5722 5723 5724 5726 5727 5727 5729 5729 5730 5730
5661 5660 5661 5661 5661 5662 5662 5663 5664 5665 5667 5668 5670 5671 5674 5676 5678 5680 5682 5683 5686 5688 5690 5692 5695 5697 5699 5702 5704 5705 5707 5708 5710 5711 5713 5714 5715 5716 5717 5718 5719 5719 5720
5650 5649 5649 5649 5649 5649 5650 5651 5652 5653 5654 5656 5658 5660 5662 5664 5666 5668 5671 5673 5674 5676 5678 5680 5683 5685 5687 5690 5692 5694 5696 5697 5698 5700 5702 5703 5704 5705 5706 5707 5708 5709 5709
5638 5638 5638 5638 5637 5638 5638 5639 5640 5641 5643 5644 5646 5648 5650 5652 5654 5656 5659 5661 5663 5665 5666 5668 5671 5673 5676 5678 5680 5682 5684 5685 5687 5688 5690 5692 5693 5694 5695 5696 5697 5698 5698
5628 5627 5626 5627 5626 5627 5627 5628 5629 5630 5632 5633 5635 5637 5638 5640 5642 5645 5647 5649 5651 5653 5655 5657 5659 5661 5664 5666 5668 5670 5672 5673 5675 5677 5678 5680 5681 5682 5684 5685 5686 5686 5687
5616 5616 5615 5615 5615 5615 5616 5617 5618 5619 5621 5622 5624 5626 5627 5629 5630 5632 5635 5637 5639 5642 5643 5645 5646 5649 5652 5654 5656 5658 5660 5661 5663 5665 5666 5668 5669 5670 5672 5673 5674 5674 5675
5605 5605 5604 5604 5604 5604 5605 5606 5608 5609 5610 5612 5613 5614 5616 5618 5620 5621 5623 5625 5628 5630 5632 5633 5635 5637 5640 5642 5644 5646 5648 5650 5651 5652 5654 5655 5657 5658 5659 5660 5661 5662 5662
5594 5594 5594 5594 5594 5594 5595 5596 5597 5599 5600 5601 5603 5604 5605 5607 5609 5610 5612 5614 5615 5618 5620 5623 5624 5625 5627 5630 5632 5634 5636 5638 5639 5640 5641 5643 5644 5645 5647 5648 5648 5649 5650
5584 5583 5583 5583 5583 5584 5585 5585 5587 5588 5589 5591 5592 5594 5595 5596 5598 5600 5601 5603 5605 5607 5609 5611 5612 5614 5615 5618 5620 5622 5623 5625 5626 5627 5628 5630 5631 5632 5634 5635 5636 5636 5637
5574 5574 5573 5573 5573 5574 5574 5575 5576 5577 5579 5580 5581 5583 5584 5586 5587 5589 5590 5592 5594 5596 5598 5600 5601 5602 5604 5606 5608 5610 5611 5612 5613 5614 5616 5617 5618 5620 5621 5622 5623 5623 5623
5564 5564 5563 5563 5563 5563 5563 5564 5565 5567 5568 5569 5571 5572 5574 5575 5577 5578 5580 5581 5583 5585 5586 5588 5590 5591 5592 5594 5596 5597 5598 5600 5601 5602 5603 5604 5605 5606 5608 5609 5609 5610 5610
5554 5554 5553 5552 5552 5552 5553 5554 5555 5556 5557 5559 5560 5562 5563 5564 5566 5567 5569 5570 5572 5573 5575 5577 5578 5580 5581 5582 5584 5586 5587 5588 5589 5590 5590 5591 5592 5593 5594 5595 5596 5596 5596
5545 5544 5543 5542 5542 5542 5543 5543 5544 5545 5546 5548 5549 5550 5552 5553 5554 5556 5558 5559 5560 5562 5563 5565 5567 5568 5570 5571 5573 5574 5575 5576 5577 5577 5578 5579 5580 5581 5581 5582 5582 5583 5583
5535 5534 5533 5532 5532 5532 5532 5533 5533 5534 5536 5537 5538 5539 5540 5542 5543 5545 5546 5548 5549 5551 5552 5554 5555 5557 5558 5560 5561 5562 5563 5565 5566 5567 5567 5567 5567 5568 5569 5569 5569 5569 5569
5525 5524 5523 5522 5522 5522 5522 5522 5523 5523 5525 5526 5527 5528 5530 5531 5532 5533 5535 5536 5538 5539 5541 5543 5544 5546 5547 5549 5550 5551 5551 5552 5553 5554 5554 5555 5555 5555 5556 5556 5556 5556 5556
5515 5513 5512 5512 5511 5511 5512 5512 5513 5513 5514 5515 5517 5518 5519 5520 5521 5523 5524 5525 5527 5528 5530 5532 5534 5535 5536 5537 5539 5540 5540 5541 5542 5542 5542 5543 5544 5544 5544 5543 5543 5544 5543
5505 5503 5502 5501 5501 5501 5502 5502 5503 5503 5505 5506 5507 5508 5509 5510 5511 5513 5514 5516 5517 5518 5520 5521 5523 5524 5526 5527 5528 5529 5530 5530 5531 5531 5531 5532 5533 5533 5533 5532 5532 5532 5532
5494 5493 5492 5492 5491 5492 5492 5493 5494 5494 5496 5497 5498 5499 5500 5501 5502 5503 5504 5506 5507 5509 5510 5512 5513 5514 5516 5517 5517 5518 5519 5519 5520 5521 5520 5521 5522 5522 5524 5523 5522 5521 5520